Weather History for Meridian NAS, MS

Change the Weather History Date:

Wednesday, February 20, 2013

  Actual Average Record
Temperature  
Mean Temperature 38 °F -  
Max Temperature 48 °F 60 °F 81 °F (1997)
Min Temperature 28 °F 42 °F 24 °F (2009)
Degree Days  
Heating Degree Days 27    
Moisture  
Dew Point 23 °F    
Average Humidity 53    
Maximum Humidity 89    
Minimum Humidity 28    
Precipitation  
Precipitation 0.00 in - - ()
Sea Level Pressure  
Sea Level Pressure 30.26 in    
Wind  
Wind Speed 4 mph (NNE)    
Max Wind Speed 8 mph    
Max Gust Speed -    
Visibility 10 miles    
Events      
Averages and records for this station are not official NWS values.
T = Trace of Precipitation, MM = Missing Value Source: NWS Daily Summary

Daily Weather History Graph

Daily Weather History Graph

Search for Another Location

Airport:

Trip Planner

Search our weather history database for the weather conditions in past years. The results will help you decide how hot, cold, wet, or windy it might be!

Date:

Astronomy

Feb. 20, 2013 Rise Set
Actual Time 6:31 AM CST 5:44 PM CST
Civil Twilight 6:06 AM CST 6:09 PM CST
Nautical Twilight 5:38 AM CST 6:38 PM CST
Astronomical Twilight 5:09 AM CST 7:06 PM CST
Moon 1:15 PM CST (2/20) 2:41 AM CST (2/20)
Length of Visible Light 12h 02m
Length of Day
11h 12m
Waxing Gibbous, 76% of the Moon is Illuminated
Feb 20
Waxing Gibbous
Feb 25
Full
Mar 4
Last Quarter
Mar 11
New
Mar 19
First Quarter

Hourly Weather History & Observations

Time (CST) Temp. Windchill Dew Point Humidity Pressure Visibility Wind Dir Wind Speed Gust Speed Precip Events Conditions
12:56 AM 34.0 °F 29.8 °F 25.0 °F 70% 30.28 in 10.0 mi NNW 4.6 mph - N/A   Clear
1:56 AM 34.0 °F - 24.1 °F 67% 30.29 in 10.0 mi Calm Calm - N/A   Clear
2:56 AM 30.0 °F - 26.1 °F 85% 30.31 in 10.0 mi Calm Calm - N/A   Clear
3:56 AM 30.9 °F - 25.0 °F 79% 30.30 in 10.0 mi Calm Calm - N/A   Clear
4:56 AM 28.9 °F - 26.1 °F 89% 30.29 in 10.0 mi Calm Calm - N/A   Clear
5:56 AM 32.0 °F 28.7 °F 27.0 °F 82% 30.28 in 10.0 mi North 3.5 mph - N/A   Mostly Cloudy
6:56 AM 36.0 °F - 24.1 °F 62% 30.28 in 10.0 mi Calm Calm - N/A   Scattered Clouds
7:56 AM 37.9 °F 34.4 °F 26.1 °F 62% 30.31 in 10.0 mi North 4.6 mph - N/A   Scattered Clouds
8:56 AM 41.0 °F 36.4 °F 23.0 °F 49% 30.35 in 10.0 mi North 6.9 mph - N/A   Overcast
9:56 AM 43.0 °F 38.2 °F 21.9 °F 43% 30.34 in 10.0 mi NNE 8.1 mph - N/A   Clear
10:56 AM 44.1 °F 39.5 °F 21.0 °F 40% 30.34 in 10.0 mi North 8.1 mph - N/A   Mostly Cloudy
11:56 AM 45.0 °F 41.8 °F 21.9 °F 40% 30.32 in 10.0 mi North 5.8 mph - N/A   Mostly Cloudy
12:56 PM 45.0 °F 41.2 °F 18.0 °F 34% 30.28 in 10.0 mi North 6.9 mph - N/A   Mostly Cloudy
1:56 PM 46.0 °F 42.5 °F 19.9 °F 35% 30.24 in 10.0 mi NE 6.9 mph - N/A   Partly Cloudy
2:56 PM 48.0 °F - 19.0 °F 32% 30.23 in 10.0 mi ENE 5.8 mph - N/A   Mostly Cloudy
3:56 PM 48.9 °F - 17.1 °F 28% 30.23 in 10.0 mi NE 6.9 mph - N/A   Partly Cloudy
4:56 PM 48.9 °F - 17.1 °F 28% 30.22 in 10.0 mi NE 4.6 mph - N/A   Partly Cloudy
5:56 PM 45.0 °F 43.5 °F 19.0 °F 36% 30.22 in 10.0 mi NNE 3.5 mph - N/A   Partly Cloudy
6:56 PM 39.9 °F - 23.0 °F 51% 30.21 in 10.0 mi Calm Calm - N/A   Partly Cloudy
7:56 PM 37.0 °F 34.5 °F 26.1 °F 65% 30.22 in 10.0 mi North 3.5 mph - N/A   Clear
8:56 PM 39.9 °F 35.8 °F 21.9 °F 49% 30.21 in 10.0 mi NE 5.8 mph - N/A   Mostly Cloudy
9:56 PM 41.0 °F 37.1 °F 23.0 °F 49% 30.20 in 10.0 mi ENE 5.8 mph - N/A   Overcast
10:56 PM 39.0 °F 35.7 °F 21.9 °F 50% 30.19 in 10.0 mi NNE 4.6 mph - N/A   Mostly Cloudy
11:56 PM 39.0 °F 34.0 °F 23.0 °F 53% 30.17 in 10.0 mi ENE 6.9 mph - N/A   Overcast